Regional Weather Roundup
Issued by NWS Columbia, SC

Home | Current Version | Previous Version | Text Only | Print | Product List | Glossary On
Versions: 1 2 3 4 5 6 7 8 9 10 11 12 13 14 15 16 17 18 19 20 21 22 23 24 25 26 27
000
ASUS42 KCAE 272010
RWRCAE
REGIONAL WEATHER ROUNDUP
NATIONAL WEATHER SERVICE COLUMBIA SC
400 PM EDT SAT MAY 27 2017

NOTE: "FAIR" INDICATES FEW OR NO CLOUDS BELOW 12,000 FEET WITH NO
SIGNIFICANT WEATHER AND/OR OBSTRUCTIONS TO VISIBILITY.

NOT ALL STATIONS ARE QUALITY CONTROLLED BY THE NATIONAL
WEATHER SERVICE. USE DATA WITH CAUTION...ESPECIALLY
DEWPOINT OBSERVATIONS.

SCZ001>056-GAZ040-063>065-077-272100-
...UPSTATE SOUTH CAROLINA...

CITY           SKY/WX    TMP DP  RH WIND       PRES   REMARKS
ANDERSON       SUNNY     86  64  47 SW16      29.95F
SPARTANBURG    CLOUDY    82  63  51 SW10      29.93S
CLEMSON        MOSUNNY   87  67  51 VRB7      29.96F
GREENVILLE     PTSUNNY   85  65  51 SW13      29.95F
GREENWOOD      MOSUNNY   85  63  47 SW14      29.96F
GREER          CLOUDY    84  66  54 SW14      29.93F
ROCK HILL      PTSUNNY   84  65  52 SW10      29.92F
CHESTER        MOCLDY    82  63  51 SW5       29.93F
LAURENS        CLOUDY    84  64  51 SW10G17   29.94F


...CENTRAL SOUTH CAROLINA...

CITY           SKY/WX    TMP DP  RH WIND       PRES   REMARKS
COLUMBIA APT   MOSUNNY   91  60  35 W14G22    29.92F
COLUMBIA OWENS MOSUNNY   91  62  37 W10       29.93F
MCENTIRE ANGB  SUNNY     90  64  42 W10       29.93F
ORANGEBURG     SUNNY     90  60  36 W13G24    29.95F
SUMTER SHAW    SUNNY     90  64  41 SW14      29.91F
NEWBERRY       PTCLDY    86  64  48 SW16      29.96F
AIKEN          FAIR      88  59  37 W16       30.00F
BARNWELL       FAIR      91  63  38 SW10G20   29.95F
MANNING        FAIR      90  68  48 W24G33    29.94F
CAMDEN         FAIR      88  64  45 SW16      29.93F
LANCASTER      PTCLDY    86  64  48 SW10      29.91F
WINNSBORO      CLEAR     86  64  48 SW7       29.94F


...EASTERN AND COASTAL SOUTH CAROLINA...

CITY           SKY/WX    TMP DP  RH WIND       PRES   REMARKS
MYRTLE BEACH   MOSUNNY   90  66  45 W9        29.93F
N MYRTLE BCH   SUNNY     83  70  64 SW20G26   29.92F
CONWAY         FAIR      88  68  51 SW7       29.93F
MARION         FAIR      88  66  48 SW12G22   29.91F
HARTSVILLE     FAIR      88  63  42 W10G22    29.92F
FLORENCE       MOSUNNY   89  65  44 SW15G22   29.92F
DARLINGTON     PTSUNNY   88  66  48 W16G23    29.92F
CHARLESTON APT MOSUNNY   91  60  35 W16G22    29.95F
MOUNT PLEASANT FAIR      88  70  55 S13       29.95F
WALTERBORO     CLEAR     90  61  37 SW14G21   29.96F
BEAUFORT       SUNNY     92  65  40 SW14      29.97F


...EASTERN GEORGIA...

CITY           SKY/WX    TMP DP  RH WIND       PRES   REMARKS
AUGUSTA BUSH F SUNNY     93  59  31 SW13G20   29.95F
AUGUSTA DANIEL SUNNY     91  54  28 W10G20    29.97F
THOMSON        SUNNY     88  56  33 NW6       30.02F
WASHINGTON     FAIR      88  64  45 SW8       29.98F
CLAXTON        FAIR      90  63  40 W17       29.99F
SYLVANIA       CLEAR     91  63  39 W9G18     29.99F
STATESBORO     SUNNY     91  62  37 W12G18    29.99F
SAVANNAH       MOSUNNY   94  60  32 W15       29.98F


...SOUTHERN NORTH CAROLINA...

CITY           SKY/WX    TMP DP  RH WIND       PRES   REMARKS
CHARLOTTE      PTSUNNY   84  64  50 SW7       29.90F
MONROE         MOSUNNY   86  64  47 SW7       29.89F
WADESBORO      PTCLDY    88  65  46 CALM      29.89F
ROCKINGHAM     CLEAR     87  66  49 W8G17     29.91F
RUTHERFORDTON  CLOUDY    83  66  56 SW7       29.96R
ASHEVILLE      CLOUDY    80  60  50 SW3       30.00S

$$




USA.gov is the U.S. government's official web portal to all federal, state and local government web resources and services.